Terminal Aerodrome Forecast
Issued by NWS Wilmington, OH

Current Version | Previous Version | Graphics & Text | Print | Product List | Glossary On
Versions: 1 2 3 4 5 6 7 8 9 10 11 12 13 14 15 16 17 18 19 20 21 22 23 24 25 26 27 28 29 30
571
FTUS41 KILN 141040 AAC
TAFCVG
TAF AMD
KCVG 141040Z 1411/1512 07007KT 3SM BR OVC004
     FM141400 08003KT 2SM -RA BR OVC008
     FM141900 34005KT P6SM VCSH OVC012
     FM150000 36004KT P6SM OVC012=

USA.gov is the U.S. government's official web portal to all federal, state and local government web resources and services.